Regional Weather Roundup
Issued by NWS

Home | Current Version | Previous Version | Text Only | Print | Product List | Glossary On
Versions: 1 2 3 4 5 6 7 8 9 10 11 12 13 14 15 16 17 18 19 20 21 22 23 24 25 26 27 28 29 30 31 32 33 34 35 36 37 38 39 40 41 42 43 44 45 46 47 48 49 50
000
ASUS43 KLSX 191407
RWRMO

WEATHER SUMMARY FOR MISSOURI
NATIONAL WEATHER SERVICE SPRINGFIELD MO
800 AM CST FRI DEC 19 2014

NOTE: "FAIR" INDICATES FEW OR NO CLOUDS BELOW 12,000 FEET WITH NO
       SIGNIFICANT WEATHER AND/OR OBSTRUCTIONS TO VISIBILITY.
       CURRENT SKY AND/OR WEATHER CONDITIONS ARE NOT AVAILABLE FOR
       CHILLICOTHE AND FARMINGTON.

MOZ001>031-035>038-043-044-053-054-191500-
...NORTHERN AND WESTERN MISSOURI...

CITY           SKY/WX    TMP DP  RH WIND       PRES   REMARKS
KANSAS CTY INT CLOUDY    30  28  92 SE6       30.26R FOG     WCI  24
KANSAS C DTWN  CLOUDY    32  29  88 E7        30.27R WCI  26
LEE`S SUMMIT   CLOUDY    31  29  92 E3        30.26R
ST JOSEPH      CLOUDY    30  26  85 CALM      30.27R
CHILLICOTHE      N/A     31  27  85 CALM      30.29R
KIRKSVILLE     CLOUDY    29  27  92 E6        30.28R FOG     WCI  23

$$
MOZ066>068-077>081-088>096-101>105-191500-
...SOUTHWEST MISSOURI...

CITY           SKY/WX    TMP DP  RH WIND       PRES   REMARKS
SPRINGFIELD    CLOUDY    37  35  92 CALM      30.22R
JOPLIN         FOG       36  35  96 N3        30.25R VSB 1/2

$$
MOZ032>034-039>042-045>050-055>058-069>072-191500-
...CENTRAL MISSOURI...

CITY           SKY/WX    TMP DP  RH WIND       PRES   REMARKS
COLUMBIA       CLOUDY    32  30  92 SE6       30.28R FOG     WCI  26
JEFFERSON CITY CLOUDY    33  31  92 E3        30.30R FOG
ROLLA          CLOUDY    32  31  96 E7        30.24R FOG     WCI  26
SEDALIA        CLOUDY    34  32  92 E5        30.27S FOG     WCI  30
WHITEMAN AFB   FOG       32  32  97 E3        30.26S VSB 1/4
OSAGE BEACH    CLOUDY    34  32  93 E5        30.25S VSB 3/4 WCI  30

$$
MOZ051-052-059>065-191500-
...EAST CENTRAL MISSOURI...

CITY           SKY/WX    TMP DP  RH WIND       PRES   REMARKS
ST LOUIS INTL  MOCLDY    32  26  78 E6        30.31R HAZE    WCI  26
SPIRIT OF STL  CLOUDY    32  28  85 E6        30.30R WCI  26
ST CHARLES     CLOUDY    31  27  85 E6        30.31S FOG     WCI  25

$$
MOZ072>076-082>087-097>100-106>115-191500-
...SOUTH CENTRAL AND SOUTHEAST MISSOURI...

CITY           SKY/WX    TMP DP  RH WIND       PRES   REMARKS
CAPE GIRARDEAU CLOUDY    34  29  82 E6        30.31R WCI  29
FARMINGTON     CLOUDY    32  30  93 N5        30.28F WCI  27
POPLAR BLUFF   CLOUDY    35  29  78 NE8       30.28S WCI  29
WEST PLAINS    FOG       34  33  96 E7        30.24S VSB 1/4 WCI  28

$$



USA.gov is the U.S. government's official web portal to all federal, state and local government web resources and services.